Tapachula Airport, Mexico

3:14 AM CDT on April 25, 2017 (GMT -0500)
Tapachula International

Weather History for MMTP - March, 2013

Change the Weather History Date:

Saturday, March 9, 2013

  Actual Average Record
Temperature  
Mean Temperature 83 °F -  
Max Temperature 91 °F 88 °F 93 °F (2017)
Min Temperature 75 °F 72 °F 69 °F (2017)
Cooling Degree Days 18    
Growing Degree Days 33 (Base 50)    
Moisture  
Dew Point 68 °F    
Average Humidity 67    
Maximum Humidity 89    
Minimum Humidity 38    
Precipitation  
Precipitation 0.00 in - - ()
Sea Level Pressure  
Sea Level Pressure 29.89 in    
Wind  
Wind Speed 1 mph ()    
Max Wind Speed 12 mph    
Max Gust Speed -    
Visibility 8.0 miles    
Events      
Averages and records for this station are not official NWS values.
T = Trace of Precipitation, MM = Missing Value Source: Averaged Metar Reports

Daily Weather History Graph

Daily Weather History Graph

Search for Another Location

Airport or City:

Trip Planner

Search our weather history database for the weather conditions in past years. The results will help you decide how hot, cold, wet, or windy it might be!

Date:

Astronomy

Mar. 09, 2013 Rise Set
Actual Time 6:20 AM CST 6:18 PM CST
Civil Twilight 5:59 AM CST 6:40 PM CST
Nautical Twilight 5:34 AM CST 7:04 PM CST
Astronomical Twilight 5:09 AM CST 7:29 PM CST
Moon 4:29 AM CST (3/9) 4:32 PM CST (3/9)
Length of Visible Light 12h 40m
Length of Day
11h 57m
Waning Crescent, 5% of the Moon is Illuminated
Mar 9
Waning Crescent
Mar 11
New
Mar 19
First Quarter
Mar 27
Full
Apr 2
Last Quarter

Hourly Weather History & Observations

Time (CST) Temp. Heat Index Dew Point Humidity Pressure Visibility Wind Dir Wind Speed Gust Speed Precip Events Conditions
12:40 AM 75.2 °F - 71.6 °F 89% 29.96 in 8.0 mi Calm Calm - N/A   Scattered Clouds
1:40 AM 75.2 °F - 71.6 °F 89% 29.93 in 8.0 mi Calm Calm - N/A   Scattered Clouds
2:40 AM 75.2 °F - 71.6 °F 89% 29.86 in 8.0 mi North 6.9 mph - N/A   Scattered Clouds
3:40 AM 75.2 °F - 71.6 °F 89% 29.89 in 8.0 mi Calm Calm - N/A   Scattered Clouds
4:40 AM 77.0 °F - 71.6 °F 83% 29.89 in 8.0 mi Calm Calm - N/A   Scattered Clouds
5:40 AM 75.2 °F - 69.8 °F 83% 29.84 in 8.0 mi Calm Calm - N/A   Scattered Clouds
6:40 AM 75.2 °F - 69.8 °F 83% 29.91 in 8.0 mi Calm Calm - N/A   Clear
7:40 AM 75.2 °F - 69.8 °F 83% 29.94 in 8.0 mi Calm Calm - N/A   Scattered Clouds
8:40 AM 78.8 °F - 73.4 °F 83% 29.87 in 8.0 mi Calm Calm - N/A   Scattered Clouds
9:40 AM 84.2 °F 88.4 °F 69.8 °F 62% 29.96 in 8.0 mi Calm Calm - N/A   Clear
10:41 AM 91.4 °F 93.2 °F 64.4 °F 41% 29.94 in 8.0 mi Calm Calm - N/A   Clear
11:40 AM 91.4 °F 94.0 °F 66.2 °F 43% 29.86 in 8.0 mi Calm Calm - N/A   Clear
12:40 PM 91.4 °F 93.2 °F 64.4 °F 41% 29.89 in 8.0 mi Calm Calm - N/A   Clear
1:40 PM 89.6 °F 90.1 °F 62.6 °F 40% 29.86 in 8.0 mi Calm Calm - N/A   Clear
2:40 PM 89.6 °F 89.5 °F 60.8 °F 38% 29.86 in 8.0 mi Calm Calm - N/A   Clear
3:40 PM 89.6 °F 89.5 °F 60.8 °F 38% 29.83 in 8.0 mi Calm Calm - N/A   Clear
4:55 PM 89.6 °F 89.5 °F 60.8 °F 38% 29.84 in 8.0 mi SW 11.5 mph - N/A   Clear
5:40 PM 84.2 °F 88.4 °F 69.8 °F 62% 29.91 in 8.0 mi Calm Calm - N/A   Clear
6:40 PM 82.4 °F 86.3 °F 69.8 °F 66% 29.86 in 8.0 mi Calm Calm - N/A   Clear
7:40 PM 80.6 °F 83.9 °F 69.8 °F 70% 29.88 in 8.0 mi Calm Calm - N/A   Clear
8:40 PM 80.6 °F 83.9 °F 69.8 °F 70% 29.89 in 8.0 mi Calm Calm - N/A   Clear
9:40 PM 78.8 °F - 71.6 °F 78% 29.90 in 8.0 mi Calm Calm - N/A   Clear
10:40 PM 78.8 °F - 71.6 °F 78% 29.90 in 8.0 mi Calm Calm - N/A   Clear
11:40 PM 77.0 °F - 68.0 °F 74% 29.86 in 8.0 mi Calm Calm - N/A   Clear